Location: Eaton
(41.3139°N, 82.0207°W)
Time: 05:24:17
(UTC+00:00)

Cosmos 2285 Rocket - Pass Details

Date: 28 October 2021
Orbit: 970 x 1000 km, 74.0° (Epoch: 06 December)

Event Time Altitude Azimuth Distance (km) Brightness Sun altitude
Rises 11:12:04 0° 350° (N) 3,725 6.8 -8.7°
Reaches altitude 10° 11:15:12 10° 3° (N) 2,775 6.3 -8.1°
Maximum altitude 11:20:19 24° 56° (ENE) 1,933 6.2 -7.2°
Drops below altitude 10° 11:25:24 10° 109° (ESE) 2,766 8.2 -6.2°
Sets 11:28:30 0° 123° (ESE) 3,710 8.6 -5.7°
